Location: Lussas
(44.6119°N, 4.4726°E)
Time: 11:15:08
(UTC+00:00)

SAR-Lupe-1 - Pass Details

Date: 17 April 2021
Orbit: 482 x 483 km, 98.2° (Epoch: 30 March)

Event Time Altitude Azimuth Distance (km) Brightness Sun altitude
Rises 20:00:15 0° 356° (N) 2,559 8.3 -15.5°
Reaches altitude 10° 20:02:53 10° 335° (NNW) 1,673 7.7 -15.8°
Maximum altitude 20:05:12 16° 295° (WNW) 1,318 7.4 -16.2°
Drops below altitude 10° 20:07:29 10° 255° (WSW) 1,664 7.3 -16.5°
Sets 20:10:06 0° 234° (SW) 2,539 8.0 -16.9°
